Regional Weather Roundup
Issued by NWS

Home | Current Version | Previous Version | Text Only | Print | Product List | Glossary Off
Versions: 1 2 3 4 5 6 7 8 9 10 11 12 13 14 15 16 17 18 19 20 21 22 23 24 25 26 27 28 29 30 31 32 33 34 35 36 37 38 39 40 41 42 43 44 45 46 47 48 49 50

000
ASUS43 KBIS 231210
RWRND

NORTH DAKOTA REGIONAL WEATHER ROUNDUP
NATIONAL WEATHER SERVICE BISMARCK ND
700 AM CDT TUE SEP 23 2014

NOTE: "FAIR" INDICATES FEW OR NO CLOUDS BELOW 12,000 FEET WITH NO
SIGNIFICANT WEATHER AND/OR OBSTRUCTIONS TO VISIBILITY.


NDZ001>003-009>011-017-231300-
NORTHWEST NORTH DAKOTA

CITY           SKY/WX    TMP DP  RH WIND       PRES   REMARKS
WILLISTON      CLEAR     50  46  86 N5        29.85S
6HR MIN TEMP:  48; 6HR MAX TEMP:  59;

MINOT          CLEAR     51  47  86 CALM      29.88S
MINOT AFB      CLEAR     48  48  99 SE5       29.88S
$$

NDZ018>021-031>035-040>046-231300-
SOUTHWEST NORTH DAKOTA

CITY           SKY/WX    TMP DP  RH WIND       PRES   REMARKS
BISMARCK       CLEAR     54  52  93 SE5       29.92S
6HR MIN TEMP:  54; 6HR MAX TEMP:  60;

DICKINSON      CLEAR     51  49  92 S10       29.86S
GARRISON         N/A     54  52  93 SE6       29.89S
6HR MIN TEMP:  54; 6HR MAX TEMP:  58;

HETTINGER ARPT PTCLDY    53  50  89 SE6       29.91R
$$

NDZ004>008-012>016-024-026-027-054-231300-
NORTHEAST NORTH DAKOTA

CITY           SKY/WX    TMP DP  RH WIND       PRES   REMARKS
GRAND FORKS    CLEAR     52  48  86 S10       30.02S
GRND FRKS AFB  CLEAR     51  51  98 S9        30.02S
DEVILS LAKE    CLEAR     55  46  71 SE8       29.95S
$$

NDZ022-023-025-028>030-036>039-047>053-231300-
SOUTHEAST NORTH DAKOTA

CITY           SKY/WX    TMP DP  RH WIND       PRES   REMARKS
FARGO          CLEAR     56  48  74 SE12      30.04S
6HR MIN TEMP:  56; 6HR MAX TEMP:  61;

JAMESTOWN      CLEAR     54  50  86 S9        29.98S
$$




USA.gov is the U.S. government's official web portal to all federal, state and local government web resources and services.